Regional Weather Roundup
Issued by NWS Grand Forks, ND

Home | Current Version | Previous Version | Text Only | Print | Product List | Glossary Off
Versions: 1 2 3 4 5 6 7 8 9 10 11 12 13 14 15 16 17 18 19 20 21 22 23 24 25 26 27 28 29 30 31 32 33 34 35 36 37 38 39 40 41 42 43 44 45 46 47 48 49 50

000
ASUS43 KFGF 280531
RWRFGF
PRAIRIE TO PINES  WEATHER ROUNDUP
NATIONAL WEATHER SERVICE EASTERN NORTH DAKOTA/GRAND FORKS ND
1200 AM CDT MON JUL 28 2014

 **SATELLITE DATA USED TO AUGMENT SKY COVER AT AUTOMATED STATIONS**
 *****  WEATHER ACROSS EASTERN NORTH DAKOTA  *****

CITY           SKY/WX    TMP DP  RH WIND       PRES   REMARKS
GRAND FORKS    CLOUDY    61  56  83 NW6         N/A
GRAND FRKS AFB CLOUDY    60  57  89 NW7       30.23S
GRAND FRKS NWS   N/A     61 N/A N/A N3          N/A
DEVILS LAKE    CLOUDY    57  52  82 NW6       30.25R
FARGO          CLOUDY    60  57  89 NW6       30.21R
WAHPETON ARPT  MOCLDY    59  54  82 NW7       30.21R
$$

 ***** WEATHER ACROSS CENTRAL AND WESTERN NORTH DAKOTA  *****

CITY           SKY/WX    TMP DP  RH WIND       PRES   REMARKS
BISMARCK       CLEAR     53  50  89 CALM      30.30R
MINOT          CLEAR     56  52  86 CALM      30.28S
JAMESTOWN      CLOUDY    61  55  81 NW7       30.25S
MINOT AFB      CLEAR     53  53  99 W1        30.28R
GARRISON         N/A     53  50  89 CALM      30.29S
WILLISTON      CLEAR     58  52  80 CALM      30.29S
DICKINSON      CLEAR     53  49  86 S5        30.31R
HETTINGER      CLEAR     53  50  89 E3        30.33R
$$

 *****  OTHER AIRPORT OBSERVATIONS IN OUR AREA  *****

CITY           SKY/WX    TMP DP  RH WIND       PRES   REMARKS
WALHALLA         N/A     57  57 100 CALM        N/A
GRAFTON AIRPOR CLOUDY    59  55  88 NW8       30.22S
VALLEY CITY AR FAIR      59  57  94 N7        30.25R
CANDO          CLOUDY    55  54  94 NW5       30.28R
CAVALIER APRT  FAIR      55  54  94 NW6       30.23S
GWINNER        CLOUDY    63  59  88 NW6       30.24S
SHEYENNE NWR     N/A     61  56  83 CALM      29.95
ROLLA          CLOUDY    55  55 100 NW6       30.29S
 ***** THE ABOVE OBSERVATIONS ARE NON NWS ARE NOT QUALITY
       CONTROLLED AND MAY MIS-REPORT RAIN FOR SNOW...
$$

  *****  WEATHER ACROSS NORTHERN MINNESOTA  *****

CITY           SKY/WX    TMP DP  RH WIND       PRES   REMARKS
FLAG ISLAND    CLEAR     64  55  72 NW13      30.17R
WARROAD        PTCLDY    57  54  88 NW6       30.20R
ROSEAU         PTCLDY    57  52  82 NW5       30.20R
HALLOCK        CLEAR     59  54  82 N6        30.21S
THF RVR FALLS  CLOUDY    61  55  82 NW6       30.21S
BAUDETTE       PTCLDY    55  53  93 CALM      30.18R
WASKISH        CLOUDY    63  55  77 NW8       30.17S
CROOKSTON      CLOUDY    61  57  88 N5        30.22R
$$
  *****  WEATHER ACROSS CENTRAL AND WEST MINNESOTA  *****

CITY           SKY/WX    TMP DP  RH WIND       PRES   REMARKS
FOSSTON        CLOUDY    57  54  88 NW6       30.21S
BEMIDJI        CLOUDY    59  55  85 NW6       30.18S
PARK RAPIDS    CLOUDY    61  57  87 N8        30.19R
ELBOW LAKE     CLOUDY    62  58  88 N6        30.19S
WADENA         CLOUDY    61  57  88 CALM      30.18S
DETROIT LAKES  MOCLDY    61  59  94 N6        30.21S
MOORHEAD       MOCLDY    57  57 100 N3        30.21S
FERGUS FALLS   CLOUDY    63  55  77 N7        30.20S
MORRIS MN      CLOUDY    63  59  88 N6        30.19R
STAPLES        CLOUDY    61  57  88 NW5       30.18S
$$
  *****  WEATHER ELSEWHERE ACROSS MINNESOTA  *****

CITY           SKY/WX    TMP DP  RH WIND       PRES   REMARKS
DULUTH         PTCLDY    58  53  84 NW7       30.11S
INTRNTL FALLS  CLEAR     50  48  93 CALM      30.15R
ELY            CLEAR     50  48  93 CALM      30.13S
CLOQUET        CLEAR     55  54  94 NW5       30.13R
WHEATON        MOCLDY    57  55  94 NW5       30.22S
BRAINERD       CLOUDY    64  55  72 N9        30.17R
HIBBING        MOCLDY    55  51  86 NW5       30.14R
ALEXANDRIA     CLOUDY    62  59  90 NE3       30.20R
SAINT CLOUD    CLOUDY    64  57  78 NW3       30.15R
MINNEAPOLIS    CLOUDY    65  58  78 N7        30.13R
$$

  *****  WEATHER ACROSS SOUTH DAKOTA  *****

CITY           SKY/WX    TMP DP  RH WIND       PRES   REMARKS
SIOUX FALLS    MOCLDY    63  58  83 N8        30.22R
BROOKINGS      NOT AVBL
WATERTOWN      CLEAR     56  51  84 N6        30.23R
HURON          CLEAR     54  52  93 NW3       30.25R
SISSETON         N/A     56  55  97 NW6       30.21R
ABERDEEN       CLEAR     53  52  96 NW7       30.25S
MITCHELL       CLEAR     59  55  87 W6        30.26R
PIERRE         CLEAR     58  53  84 NE7       30.27R
MOBRIDGE       CLEAR     56  52  86 NE7       30.27S
RAPID CITY     CLEAR     60  53  77 NE8       30.34R
$$

  *****  SOME WEATHER IN NEARBY STATES *****

CITY           SKY/WX    TMP DP  RH WIND       PRES   REMARKS
GLASGOW MT     CLEAR     64  52  64 E13       30.24S
GREAT FALLS MT CLEAR     69  40  34 E9        30.22R
CHEYENNE WY    PTCLDY    64  47  53 SE10      30.42S
SCOTTSBLUFF NE CLEAR     70  50  49 E13       30.31R
OMAHA NE       CLEAR     66  57  72 N10       30.18R
DES MOINES IA  CLEAR     67  57  70 NW12      30.09S
DAVENPORT IA   MOCLDY    63  60  90 NW7       29.99R
CHICAGO IL     MOCLDY    65  55  70 N20       29.91R
EAU CLAIRE WI  CLEAR     56  52  86 NW7       30.09R
LA CROSSE WI   CLEAR     61  55  81 N7        30.07R
$$

  *****  SOME NATIONAL WEATHER *****

CITY           SKY/WX    TMP DP  RH WIND       PRES   REMARKS
LA GUARDIA NY  TSTM      79  71  76 SW13G18   29.64R
RALEIGH NC     CLOUDY    80  70  71 SW7       29.77S
ATLANTA GA     MOCLDY    81  72  74 W9        29.97R
NEW ORLEANS LA PTCLDY    82  76  81 W9        30.07S
OKLAHOMA CITY  PTCLDY    80  59  48 NE10      30.13R
ALBUQUERQUE NM PTCLDY    77  55  46 E14       30.30R
SALT LAKE CITY CLOUDY    84  40  21 SE7       30.10R
LOS ANGELES CA MOCLDY    68  64  87 SW10      29.95R
BOISE ID       MOCLDY    87  49  26 CALM      29.99R
SEATTLE WA     CLEAR     70  53  54 N6        30.11R
$$

*** WEATHER ACROSS MANITOBA...SASKATCHEWAN AND ONTARIO ***
                ***ONTARIO***

CITY           SKY/WX    TMP DP  RH WIND       PRES   REMARKS
GERALDTON      CLOUDY    54  50  87 CALM      30.03S
THUNDER BAY    MOCLDY    55  52  88 W3        30.07R
SIOUX LOOKOUT  PTCLDY    54  52  94 N3        30.13S
TORONTO        LGT RAIN  64  61  88 NE9       29.63S
BIG TROUT LK   CLOUDY    59  54  82 N2        30.04S
PICKLE LAKE    NOT AVBL
DRYDEN         CLEAR     57  54  88 W6        30.15R
KENORA         PTCLDY    61  52  72 N3        30.18S
$$
                *** MANITOBA***

CITY           SKY/WX    TMP DP  RH WIND       PRES   REMARKS
BRANDON        CLEAR     52  50  93 NW8       30.28R
DAUPHIN        CLEAR     54  52  94 W7        30.26S
ISLAND LAKE    PTCLDY    64  55  72 NW5       30.15S
PILOT MOUND      N/A     52  50  93 NW3         N/A
THE PAS        CLEAR     55  54  94 CALM      30.25S
THOMPSON       PTCLDY    55  50  82 NW5       30.19S
WINNIPEG       CLEAR     52  50  93 NW6       30.23R
LYNN LAKE      CLEAR     59  48  67 W5        30.23S
CHURCHILL      PTCLDY    64  54  68 NW7       30.06S
GILLAM         MOCLDY    59  55  88 CALM      30.11S
$$
                ***SASKATCHEWAN***

CITY           SKY/WX    TMP DP  RH WIND       PRES   REMARKS
ESTEVAN        CLOUDY    61  57  88 E2        30.30S
KINDERSLEY     PTCLDY    59  55  88 SE8       30.24S
LLOYDMINSTER   CLEAR     55  52  88 S3        30.23S
PRINCE ALBERT  PTCLDY    52  52 100 NE3       30.27R
REGINA         PTCLDY    59  55  88 SE7       30.29S
YORKTON        CLEAR     57  52  82 CALM      30.29S
N. BATTLEFORD    N/A     61  59  94 E8        30.26R
LA RONGE       PTCLDY    55  52  88 VRB2      30.24S
SASKATOON      PTCLDY    66  57  72 SE6       30.27S
SWIFT CURRENT  CLEAR     61  55  82 E7        30.26S
$$
NOTE: THESE ARE AUTOMATED STATIONS WITH LIMITED QUALITY CONTROL
      "FAIR" INDICATES FEW OR NO CLOUDS BELOW 12,000 FEET WITH NO
      SIGNIFICANT WEATHER AND/OR OBSTRUCTIONS TO VISIBILITY.
      SKY/WX - SKY CONDITION AND SIGNIFICANT WEATHER.
      TMP - AIR TEMPERATURE.    DP   - DEWPOINT TEMPERATURE.
      RH  - RELATIVE HUMIDITY.  PRES - PRESSURE.
      HX  - HEAT INDEX.         WCI  - WIND CHILL INDEX.
$



USA.gov is the U.S. government's official web portal to all federal, state and local government web resources and services.